Content
SEND FEEDBACK

Daily
Averages
Monthly
Summary
United States of America

PLAINFIELD, MASSACHUSETTS


Home > North America > United States > Massachusetts
Elevation: 1620 feet     Latitude: 42 31N     Longitude: 072 55W

WEATHER
 
SELECT A DAY
Number of Records: 197,581;   Date Range: 10/28/95 - 9/19/14
 
SHARE

PRINT THIS DATA

[ ← Previous Day ]
WEATHER ALMANAC - JANUARY 19, 2013
[ Next Day → ]
[ °C ]   °F
Weather ElementAverageHighLow
Temperature34.5 °F42.1 °F (2:52 pm)24.1 °F (2:52 am)
Dewpoint14.8 °F21 °F (6:52 pm)5 °F (2:52 am)
Humidity45 %55 % (6:52 pm)35 % (11:52 am)
Barometer30.04 in30.24 in (2:52 am)29.81 in (11:52 pm)
Wind Speed4.7 mph15 mph (10:52 am)
Wind Gust27.6 mph (10:52 am)
Weather ElementAverage
Visibility10 mi
Wind DirectionENE (66.2 °)

Weather ElementTotal
Precipitation---
Heating Degree Days31.9 (Base 65)
Averaged from 21 records on January 19, 2013
WEATHER CONDITIONS BREAKOUT
WIND DIRECTION BREAKOUT
WEATHER BY HOUR - JANUARY 19, 2013
[ °C ]   °F
Local TimeTemperatureDewpointHumidityBarometerVisibilityWind DirectionWind SpeedGust SpeedPrecipitationEventsConditions
2:52 AM24.1 °F5.0 °F44 %30.24 in10.0 miVariable3.5 mphOvercast
3:52 AM25.0 °F6.1 °F45 %30.21 in10.0 miSSE (160°)9.2 mphOvercast
4:52 AM26.1 °F8.1 °F47 %30.17 in10.0 miVariable4.6 mphOvercast
5:52 AM28.0 °F8.1 °F43 %30.17 in10.0 miVariable5.8 mphOvercast
6:52 AM30.0 °F10.0 °F43 %30.15 in10.0 miSW (220°)5.8 mphOvercast
7:52 AM28.0 °F12.0 °F51 %30.15 in10.0 miCalmOvercast
8:52 AM28.9 °F12.9 °F51 %30.14 in10.0 miCalmClear
9:52 AM30.9 °F12.9 °F47 %30.14 in10.0 miCalmClear
10:52 AM36.0 °F14.0 °F41 %30.10 in10.0 miSSW (210°)15.0 mph27.6 mphClear
11:52 AM39.9 °F14.0 °F35 %30.05 in10.0 miVariable4.6 mphPartly Cloudy
12:52 PM41.0 °F15.1 °F35 %30.02 in10.0 miWSW (250°)6.9 mphMostly Cloudy
1:52 PM41.0 °F15.1 °F35 %30.01 in10.0 miSSW (200°)6.9 mphMostly Cloudy
2:52 PM42.1 °F17.1 °F37 %29.99 in10.0 miVariable6.9 mphMostly Cloudy
4:52 PM37.9 °F19.9 °F48 %29.97 in10.0 miESE (110°)4.6 mphMostly Cloudy
5:52 PM37.9 °F19.9 °F48 %29.96 in10.0 miCalmMostly Cloudy
6:52 PM36.0 °F21.0 °F55 %29.96 in10.0 miCalmClear
7:52 PM36.0 °F19.9 °F52 %29.94 in10.0 miVariable3.5 mphPartly Cloudy
8:52 PM36.0 °F19.0 °F50 %29.93 in10.0 miVariable4.6 mphMostly Cloudy
9:52 PM37.9 °F19.9 °F48 %29.87 in10.0 miVariable3.5 mphOvercast
10:52 PM41.0 °F19.9 °F43 %29.84 in10.0 miEast (100°)6.9 mphOvercast
11:52 PM39.9 °F21.0 °F47 %29.81 in10.0 miSE (140°)6.9 mphOvercast
Hourly data recorded from KAQW, located miles away from Plainfield, Massachusetts







STORIES FROM OUR PARTNERS